Regional Weather Roundup
Issued by NWS Charleston, WV

Home | Current Version | Previous Version | Graphics & Text | Print | Product List | Glossary On
Versions: 1 2 3 4 5 6 7 8 9 10 11 12 13 14 15 16 17 18 19 20 21 22 23 24 25 26 27 28 29 30 31 32 33 34 35 36 37 38 39 40 41 42 43 44 45 46 47 48 49 50
798
ASUS41 KRLX 200010
RWRRLX
West Virginia Regional Weather Roundup
National Weather Service Charleston WV
800 PM EDT TUE SEP 19 2017

Note: "fair" indicates few or no clouds below 12,000 feet with no
significant weather and/or obstructions to visibility.

WVZ003-200100-
Northern Panhandle of West Virginia

CITY           SKY/WX    TMP DP  RH WIND       PRES   REMARKS
WHEELING       CLOUDY    74  65  73 W5        29.98R
$$

WVZ009-200100-
Northwest West Virginia

CITY           SKY/WX    TMP DP  RH WIND       PRES   REMARKS
PARKERSBURG    CLOUDY    74  67  78 CALM      29.99R
$$

WVZ006-200100-
Western West Virginia

CITY           SKY/WX    TMP DP  RH WIND       PRES   REMARKS
HUNTINGTON     PTCLDY    73  66  78 CALM      29.95S
$$

WVZ015-200100-
West Central West Virginia

CITY           SKY/WX    TMP DP  RH WIND       PRES   REMARKS
CHARLESTON     CLOUDY    74  65  73 SE5       29.96S
$$

WVZ022-031-200100-
North Central West Virginia

CITY           SKY/WX    TMP DP  RH WIND       PRES   REMARKS
CLARKSBURG     CLEAR     69  63  81 CALM      29.97R
MORGANTOWN     CLEAR     72  62  71 CALM      29.98R
$$

WVZ025-035-042-045-200100-
Southern West Virginia

CITY           SKY/WX    TMP DP  RH WIND       PRES   REMARKS
BECKLEY        MOCLDY    69  62  78 NW5       30.05R
LOGAN          MOCLDY    73  64  73 CALM      30.00S
BLUEFIELD      PTCLDY    71  58  63 VRB3      30.07R
LEWISBURG      CLEAR     71  57  61 CALM      30.03R
$$

WVZ047-200100-
Northern Mountains of West Virginia

CITY           SKY/WX    TMP DP  RH WIND       PRES   REMARKS
ELKINS         CLEAR     65  60  84 CALM      30.02R
$$

WVZ052-200100-
Eastern Panhandle of West Virginia

CITY           SKY/WX    TMP DP  RH WIND       PRES   REMARKS
MARTINSBURG    CLEAR     76  62  62 N3        29.93S
PETERSBURG     CLEAR     73  69  89 CALM      29.96
$$




USA.gov is the U.S. government's official web portal to all federal, state and local government web resources and services.